Find Kosmos-2050

NORAD ID: 20330 Int'l Des: 1989-091 Owner: PVO Country: SU operational
MEOELLIPTICALHEO_ELLIPTICALSEMI_SYNCMOLNIYA

Live-Position

3D-Globus wird geladen...

Über Kosmos-2050

Beschreibung wird geladen...

Nächste Überflüge

Passes for default location (London). Set your location on the main map for personalized predictions.

Höhenverlauf

Loading altitude history...

Zweizeiliger Elementsatz

1 20330U 89091A 26105.78101867 .00000057 00000-0 00000+0 0 9998
2 20330 65.4058 88.9250 5957405 164.4717 227.7166 2.00379901266551
Epoch: 15. Apr. 2026 • Age: 43 hours

Aktueller Status

Höhe 28598.9 km
Geschwindigkeit 2.79 km/s
Subsatellitenpunkt -41.55°S, 6.62°E
Startdatum 23. Nov. 1989
Alter 36.3 years
Typ other

Technische Details

Klassifizierung Payload
Masse 1250.00 kg
Trockenmasse 1150.00 kg
Gesamtmasse 1250.00 kg
Länge 4.00 m
Durchmesser 2.00 m
Spannweite 5.00 m
Form Cyl + 2 Pan
Hersteller NPOL/KOMET
Bus-Typ Oko
Phasenstatus In Orbit
Besitzer/Staat PVO/SU

Most Searched